Time,TemperatureF,DewpointF,PressureIn,WindDirection,WindDirectionDegrees,WindSpeedMPH,WindSpeedGustMPH,Humidity,HourlyPrecipIn,Conditions,Clouds,dailyrainin,SoftwareType,DateUTC
2013-03-03 00:00:00,23.8,15.8,30.84,NNW,330,0.0,0.0,71,0.00,,---,0.00,VWS V13.01,2013-03-03 05:00:00,
2013-03-03 00:30:00,23.1,15.8,30.75,NNW,330,0.0,0.0,73,0.00,,---,0.00,VWS V13.01,2013-03-03 05:30:00,
2013-03-03 01:00:00,22.2,15.2,30.87,NNW,331,0.0,0.0,74,0.00,,---,0.00,VWS V13.01,2013-03-03 06:00:00,
2013-03-03 01:30:00,21.3,14.6,30.89,NNW,331,0.0,0.0,75,0.00,,---,0.00,VWS V13.01,2013-03-03 06:30:00,
2013-03-03 02:00:00,21.0,14.6,30.76,NNW,331,0.0,0.0,76,0.00,,---,0.00,VWS V13.01,2013-03-03 07:00:00,
2013-03-03 02:30:00,21.5,15.7,30.81,NNW,331,0.0,0.0,78,0.00,,---,0.00,VWS V13.01,2013-03-03 07:30:00,
2013-03-03 03:00:00,22.4,16.6,30.77,NNW,330,0.0,0.0,78,0.00,,---,0.00,VWS V13.01,2013-03-03 08:00:00,
2013-03-03 03:30:00,22.9,16.5,30.90,NNW,329,0.0,0.0,76,0.00,,---,0.00,VWS V13.01,2013-03-03 08:30:00,
2013-03-03 04:00:00,22.4,16.0,30.77,NNW,329,0.0,0.0,76,0.00,,---,0.00,VWS V13.01,2013-03-03 09:00:00,
2013-03-03 04:30:00,20.9,14.8,30.71,NNW,329,0.0,0.0,77,0.00,,---,0.00,VWS V13.01,2013-03-03 09:30:00,
2013-03-03 05:00:00,19.9,14.2,30.78,NNW,330,0.0,0.0,78,0.00,,---,0.00,VWS V13.01,2013-03-03 10:00:00,
2013-03-03 05:30:00,18.8,13.1,30.64,NNW,330,0.0,0.0,78,0.00,,---,0.00,VWS V13.01,2013-03-03 10:30:00,
2013-03-03 06:00:00,17.8,12.1,30.65,NNW,330,0.0,0.0,78,0.00,,---,0.00,VWS V13.01,2013-03-03 11:00:00,
2013-03-03 06:30:00,17.3,11.9,30.72,NNW,329,0.0,0.0,79,0.00,,---,0.00,VWS V13.01,2013-03-03 11:30:00,
2013-03-03 07:00:00,16.7,11.6,30.65,NNW,329,0.0,0.0,80,0.00,,---,0.00,VWS V13.01,2013-03-03 12:00:00,
2013-03-03 07:30:00,16.4,11.9,30.70,NNW,330,0.0,0.0,82,0.00,,---,0.00,VWS V13.01,2013-03-03 12:30:00,
2013-03-03 08:00:00,18.7,13.6,30.70,NNW,329,0.0,0.0,80,0.00,,---,0.00,VWS V13.01,2013-03-03 13:00:00,
2013-03-03 08:30:00,20.8,15.3,30.66,NNW,329,0.0,0.0,79,0.00,,---,0.00,VWS V13.01,2013-03-03 13:30:00,
2013-03-03 09:00:00,23.9,16.2,30.66,NNW,329,0.0,0.0,72,0.00,,---,0.00,VWS V13.01,2013-03-03 14:00:00,
2013-03-03 09:30:00,26.5,16.3,30.67,West,264,0.0,0.0,65,0.00,,---,0.00,VWS V13.01,2013-03-03 14:30:00,
2013-03-03 10:00:00,28.1,16.0,30.66,South,182,0.0,0.0,60,0.00,,---,0.00,VWS V13.01,2013-03-03 15:00:00,
2013-03-03 10:30:00,31.8,17.9,30.69,SW,226,0.0,0.0,56,0.00,,---,0.00,VWS V13.01,2013-03-03 15:30:00,
2013-03-03 11:00:00,30.0,17.0,30.74,NW,305,0.0,0.0,58,0.00,,---,0.00,VWS V13.01,2013-03-03 16:00:00,
2013-03-03 11:30:00,33.3,18.5,30.75,SSW,208,0.0,0.0,54,0.00,,---,0.00,VWS V13.01,2013-03-03 16:30:00,
2013-03-03 12:00:00,33.1,18.3,30.66,NW,313,0.0,0.0,54,0.00,,---,0.00,VWS V13.01,2013-03-03 17:00:00,
2013-03-03 12:30:00,35.6,19.7,30.64,SSW,212,0.0,0.0,52,0.00,,---,0.00,VWS V13.01,2013-03-03 17:30:00,
2013-03-03 13:00:00,36.2,19.4,30.64,South,183,0.0,0.0,50,0.00,,---,0.00,VWS V13.01,2013-03-03 18:00:00,
2013-03-03 13:30:00,37.1,19.7,30.64,SSE,155,0.0,0.0,49,0.00,,---,0.00,VWS V13.01,2013-03-03 18:30:00,
2013-03-03 14:00:00,36.2,19.4,30.66,SE,130,0.0,0.0,50,0.00,,---,0.00,VWS V13.01,2013-03-03 19:00:00,
2013-03-03 14:30:00,36.9,18.6,30.58,SW,218,0.0,0.0,47,0.00,,---,0.00,VWS V13.01,2013-03-03 19:30:00,
2013-03-03 15:00:00,39.9,20.3,30.60,SE,135,0.0,0.0,45,0.00,,---,0.00,VWS V13.01,2013-03-03 20:00:00,
2013-03-03 15:30:00,39.5,20.5,30.55,East,96,0.0,0.0,46,0.00,,---,0.00,VWS V13.01,2013-03-03 20:30:00,
2013-03-03 16:00:00,40.7,20.5,30.61,ESE,107,0.0,0.0,44,0.00,,---,0.00,VWS V13.01,2013-03-03 21:00:00,
2013-03-03 16:30:00,42.4,21.0,30.59,SSE,168,0.0,0.0,42,0.00,,---,0.00,VWS V13.01,2013-03-03 21:30:00,
2013-03-03 17:00:00,40.8,21.1,30.59,West,259,0.0,0.0,45,0.00,,---,0.00,VWS V13.01,2013-03-03 22:00:00,
2013-03-03 17:30:00,36.0,20.5,30.58,South,177,0.0,0.0,53,0.00,,---,0.00,VWS V13.01,2013-03-03 22:30:00,
2013-03-03 18:00:00,33.0,20.2,30.59,SSE,168,0.0,0.0,59,0.00,,---,0.00,VWS V13.01,2013-03-03 23:00:00,
2013-03-03 18:30:00,30.3,19.2,30.59,North,11,0.0,0.0,63,0.00,,---,0.00,VWS V13.01,2013-03-03 23:30:00,
2013-03-03 19:00:00,28.9,19.0,30.66,SSE,162,0.0,0.0,66,0.00,,---,0.00,VWS V13.01,2013-03-04 00:00:00,
2013-03-03 19:30:00,28.1,19.3,30.66,SE,127,0.0,0.0,69,0.00,,---,0.00,VWS V13.01,2013-03-04 00:30:00,
2013-03-03 20:00:00,27.4,17.9,30.66,South,189,0.0,0.0,67,0.00,,---,0.00,VWS V13.01,2013-03-04 01:00:00,
2013-03-03 20:30:00,26.7,17.2,30.64,WSW,241,0.0,0.0,67,0.00,,---,0.00,VWS V13.01,2013-03-04 01:30:00,
2013-03-03 21:00:00,25.9,16.8,30.70,WSW,243,0.0,0.0,68,0.00,,---,0.00,VWS V13.01,2013-03-04 02:00:00,
2013-03-03 21:30:00,25.2,16.8,30.65,West,276,0.0,0.0,70,0.00,,---,0.00,VWS V13.01,2013-03-04 02:30:00,
2013-03-03 22:00:00,24.4,16.0,30.65,West,268,0.0,0.0,70,0.00,,---,0.00,VWS V13.01,2013-03-04 03:00:00,
2013-03-03 22:30:00,23.8,16.1,30.66,NNW,347,0.0,0.0,72,0.00,,---,0.00,VWS V13.01,2013-03-04 03:30:00,
2013-03-03 23:00:00,23.1,15.4,30.61,North,353,0.0,0.0,72,0.00,,---,0.00,VWS V13.01,2013-03-04 04:00:00,
2013-03-03 23:30:00,22.7,15.4,30.69,North,354,0.0,0.0,73,0.00,,---,0.00,VWS V13.01,2013-03-04 04:30:00,